THOR ABLESTAR DEB, 125

Orbit data source: Space-Track

THOR ABLESTAR DEB, 125 is space debris in LEO originally from a launch on Thu, 29 Jun 1961 UTC launched from the Air Force Eastern Test Range (AFETR). Debris objects in space refer to the collection of defunct objects orbiting the Earth. Examples of debris include non-operational satellites, rocket bodies, and fragments generated from explosions, collisions, or faulty payload assembly.

Loading next visibility...
Identifier
125, 1961-015K
Orbit
LEO
Country
Flag of USUS
Related business
Manufacturer
Unknown
Mission
Spacecraft
Bus & Motor
Unknown
Mass
Unknown
Launch date (UTC)
1961-06-29 (65 years ago)
Launch vehicle
Unknown
Launch site
Air Force Eastern Test Range (AFETR)
Object type
Payload
Rocket body
Debris
Shape & HBR
Unknown shape, 0.1 m
Radar Cross Section
Small (<0.1 m²)

Expand to show TLE details & history
Last TLE update: 11 hours ago

TLE from 11 hours ago
0 THOR ABLESTAR DEB
1 00125U 61015K   26127.15100096  .00000103  00000-0  10557-3 0  9996
2 00125  66.8770  31.9844 0065864  94.5964 266.2651 14.07683507311485
Epoch: 2026-05-07T03:37Z
TLE epoch observation values (Epoch: 2026-05-07T03:37:26.482Z)
Latitude
-0.00006°
Longitude
112.62277°
Altitude
872.83 km
Speed
7.415 km/s
True Right ascension
02h 07m 56s
True Declination
0° 00' 00"
Sunlit
Object was in daylight at epoch
Visualization orbit readout
Latitude
Unknown
Longitude
Unknown
Altitude
Unknown
Speed
Unknown
Apparent Right ascension
Unknown
Apparent Declination
Unknown
Sunlit
N/A
Visualization observer readout
Local Sidereal Time
22:18:01
Azimuth
Unknown
Elevation
Unknown
Doppler factor
Unknown
Orbital elements
Apogee altitude
913.392 km
Perigee altitude
817.97 km
Semi-major axis
7,243.818 km
Eccentricity
0.00659
Inclination
66.877°
RAAN
31.9844°
Arg. of periapsis
94.5964°
True anomaly
265.51238°
Mean anomaly
266.2651°
Eccentric anomaly
265.8887°
Mean motion
3.5204 °/min
Orbital period
102.26 mins
BSTAR
0.00010557

Documentation

Showing up to 5 results
|